03:39
Airports
History
Links
Donate
Help keep this website running!
PayPal
Bitcoin
This page is community maintained. The information is intended for PC simulator navigation or reference.
Always use approved charts for navigation.
MS62
Davis Field
Davis Field (MS62)
Olive Branch, Mississippi, United States (38654)
4
Lat/Lng:34° 59' 28.33" N / 89° 48' 56.31" W
34.991204 / -89.815642
Elevation:410'ft / 125mMSL
ID / ICAO:MS62
Runways:1
Longest:18-36
Grass 547m / 1,795ft
Nearby Weather02:54 GMT 2017-11-24
Nearby weather at KMEM, Memphis Intl located 9.8 nautical miles from MS62
Altimeter: 30.05
Visibility: 10.0 statute miles
Wind: 4 knots (from 190°)
Temp: 3°c / 37°f
Humidity: 69.6%

METAR: KMEM 240254Z 19004KT 10SM CLR 03/M02 A3005 RMK AO2 SLP178 T00331017 50002

(Powered by phpweather)
Nearby VORs <50NM
Nearby NDBs
Runway 18 / 36
Dimensions:547.2 x 30.5m 1795' x 100'ft
Surface:Grass
Runway 18 [A]Runway 36 [B]
Heading:182°TH 002°TH
Lat:
Lng:
34° 59' 37.22"N
89° 48' 55.93"W
34° 59' 19.45"N
89° 48' 56.69"W
User Notes and Comments
34° 59' 28.33" N / 89° 48' 56.31" W
Distance To
Airport ID:
Nearby Airports
(C) Olive Branch 1.8 NM
KOLV ESE 117°
4 Colonial Air Park 4.8 NM
48M E 86°
(R) Burkeen Field 6.8 NM
TN70 ENE 69°
(C) Memphis Intl 9.8 NM
KMEM ( WX ) WNW 291°
4 Bald Eagle Air Park 9.9 NM
3J4 SW 235°
(R) Vaiden Landing 10.5 NM
MS64 SSW 199°
4 Wolf River 14.0 NM
54M ENE 71°
VFR Chart
Flight Planning at SkyVector.com